CZ-5 R/B, 59021

Orbit data source: Space-Track

CZ-5 R/B, 59021 is space debris in HEO originally from a launch on Fri, 23 Feb 2024 UTC launched from the Wenchang Satellite Launch Center (WSC). Debris objects in space refer to the collection of defunct objects orbiting the Earth. Examples of debris include non-operational satellites, rocket bodies, and fragments generated from explosions, collisions, or faulty payload assembly.

Loading next visibility...
Identifier
59021, 2024-037B
Orbit
HEO
Country
Flag of CNCN / PRC
Related business
Manufacturer
CALT
Mission
Spacecraft
Bus & Motor
CZ-5 H5-2, Unknown motor
Mass
5,100 kg wet, 5,100 kg dry
Launch date (UTC)
2024-02-23 (2 years ago)
Launch vehicle
Unknown
Launch site
Wenchang Satellite Launch Center (WSC)
Object type
Payload
Rocket body
Debris
Shape & HBR
Step Cyl, 5.3 m
Radar Cross Section
46.821 m², Large (>1 m²)

Expand to show TLE details & history
Last TLE update: 1 day ago

TLE from 1 day ago
0 CZ-5 R/B
1 59021U 24037B   26194.61240521  .00002784  00000-0  63571-3 0  9992
2 59021  16.3967 307.9062 7031213 214.8575  67.6833  2.60451754 22086
Epoch: 2026-07-13T14:41Z
TLE epoch observation values (Epoch: 2026-07-13T14:41:51.810Z)
Latitude
0.00032°
Longitude
156.01748°
Altitude
20,372.383 km
Speed
3.455 km/s
True Right ascension
20h 31m 54s
True Declination
0° 00' 01"
Sunlit
Object was in daylight at epoch
Visualization orbit readout
Latitude
Unknown
Longitude
Unknown
Altitude
Unknown
Speed
Unknown
Apparent Right ascension
Unknown
Apparent Declination
Unknown
Sunlit
N/A
Visualization observer readout
Local Sidereal Time
05:35:18
Azimuth
Unknown
Elevation
Unknown
Doppler factor
Unknown
Orbital elements
Apogee altitude
31,634.113 km
Perigee altitude
247.948 km
Semi-major axis
22,319.168 km
Eccentricity
0.70312
Inclination
16.3967°
RAAN
307.9062°
Arg. of periapsis
214.8575°
True anomaly
145.27432°
Mean anomaly
67.6833°
Eccentric anomaly
106.34167°
Mean motion
0.65092 °/min
Orbital period
553.07 mins
BSTAR
0.00063571
Loading maneuver chart data...
Computing Atmospheric mass density...
Loading historical data...
Loading historical data...
Loading historical data...
Loading historical data...
Loading historical data...
Loading historical data...
Loading historical data...
Other satellites on launch #37 in the year 2024 (2024-02-23 UTC)

Documentation

Showing up to 5 results
|